Location: Newark
(39.6172°N, 96.8533°W)
Time: 10:41:59
(UTC+00:00)

Tiros 1 despin weight - Visible Passes

Search period start: 17 February 2020 00:00
Search period end: 27 February 2020 00:00
Orbit: 594 x 642 km, 48.2° (Epoch: 16 February)

Date Brightness Start Highest point End Pass type
(mag) Time Alt. Az. Time Alt. Az. Time Alt. Az.
17 Feb ? 10:42:24 22° NNE 10:42:24 22° NNE 10:44:26 10° NE visible
17 Feb ? 12:19:27 12° NW 12:22:54 28° N 12:26:45 10° ENE visible
18 Feb ? 10:58:09 25° NNE 10:58:09 25° NNE 11:01:08 10° NE visible
18 Feb ? 12:35:42 10° NW 12:39:45 34° NNE 12:43:50 10° E visible
19 Feb ? 11:13:55 26° N 11:14:16 27° N 11:18:02 10° ENE visible
20 Feb ? 11:29:41 24° NNW 11:31:09 30° NNE 11:35:05 10° ENE visible
21 Feb ? 10:08:26 15° NE 10:08:26 15° NE 10:09:22 10° ENE visible
21 Feb ? 11:45:29 21° NW 11:47:58 39° NNE 11:52:08 10° E visible
22 Feb ? 10:24:17 21° NE 10:24:17 21° NE 10:26:20 10° ENE visible
22 Feb ? 12:01:20 17° NW 12:04:41 59° NNE 12:09:03 10° ESE visible
23 Feb ? 10:40:11 31° NE 10:40:11 31° NE 10:43:24 10° E visible
23 Feb ? 12:17:14 12° WNW 12:21:16 81° SSW 12:25:41 10° SE visible
24 Feb ? 10:56:08 46° NNE 10:56:10 46° NNE 11:00:25 10° E visible
24 Feb ? 12:33:31 10° WNW 12:37:42 43° SW 12:41:53 10° SSE visible
25 Feb ? 11:12:12 62° NNW 11:12:50 73° NNE 11:17:14 10° ESE visible
26 Feb ? 09:51:17 12° E 09:51:17 12° E 09:51:43 10° E visible
26 Feb ? 11:28:22 48° W 11:29:21 63° SW 11:33:42 10° SE visible
